Regional Weather Roundup
Issued by NWS

Home | Current Version | Previous Version | Graphics & Text | Print | Product List | Glossary On
Versions: 1 2 3 4 5 6 7 8 9 10 11 12 13 14 15 16 17 18 19 20 21 22 23 24 25 26 27 28 29 30 31 32 33 34 35 36 37 38 39 40 41 42 43 44 45 46 47 48 49 50
000
ASUS43 KFSD 270410
RWRSD

WEATHER ROUNDUP FOR SOUTH DAKOTA
NATIONAL WEATHER SERVICE SIOUX FALLS SD
1100 PM CDT SUN APR 26 2015

NOTE: "FAIR" INDICATES FEW OR NO CLOUDS BELOW 12,000 FEET WITH NO
SIGNIFICANT WEATHER AND/OR OBSTRUCTIONS TO VISIBILITY.


SDZ001>005-009-010-012>017-270500-
NORTHWEST AND NORTH CENTRAL SOUTH DAKOTA

CITY           SKY/WX    TMP DP  RH WIND       PRES   REMARKS
BUFFALO          N/A     45  44  97 NE8       30.09R
FAITH            N/A     52  36  54 SE9       30.12R
MOBRIDGE       CLOUDY    49  34  56 CALM      30.10R
$$

SDZ012>016-024>037-041>051-057-063-072>074-270500-
SOUTHWEST AND SOUTH CENTRAL SOUTH DAKOTA

CITY           SKY/WX    TMP DP  RH WIND       PRES   REMARKS
RAPID CTY ARPT CLOUDY    46  43  89 N3        30.13R
PIERRE         MOCLDY    47  33  58 NE3       30.11R
CUSTER         LGT RAIN  40  38  93 E7        30.14R
ELLSWORTH AFB  CLOUDY    46  45  95 SW3       30.13R
PHILIP         CLOUDY    53  38  56 CALM      30.12R
PINE RIDGE     MOCLDY    43  39  86 E5        30.12R
SPEARFISH      CLOUDY    46  45  93 SE6       30.15R
WINNER         FAIR      50  29  44 S7        30.12R
$$

SDZ004>011-016>023-039-040-270500-
NORTHEAST SOUTH DAKOTA

CITY           SKY/WX    TMP DP  RH WIND       PRES   REMARKS
ABERDEEN       PTCLDY    51  30  44 E10       30.13R
WATERTOWN      CLEAR     50  23  34 E5        30.14R
BROOKINGS      CLEAR     48  30  49 NE7       30.14R
SISSETON         N/A     43  29  57 CALM      30.14R
$$

SDZ017-020-022-023-036>040-048>070-270500-
SOUTHEAST SOUTH DAKOTA

CITY           SKY/WX    TMP DP  RH WIND       PRES   REMARKS
SIOUX FALLS    CLEAR     48  31  51 N6        30.11R
HURON          PTCLDY    49  32  52 E6        30.12R
CHAMBERLAIN    PTCLDY    46  32  58 CALM      30.11R
MITCHELL       CLEAR     48  38  68 E3        30.11R
YANKTON        CLEAR     54  28  37 CALM      30.09R
$$

ABBREVIATIONS USED IN REMARKS
   TC - TEMPERATURE IN CELSIUS
  WCI - WIND CHILL INDEX
   HX - HEAT INDEX
  VSB - VISIBILITY



USA.gov is the U.S. government's official web portal to all federal, state and local government web resources and services.